TimeEST,TemperatureF,Dew PointF,Humidity,Sea Level PressureIn,VisibilityMPH,Wind Direction,Wind SpeedMPH,Gust SpeedMPH,PrecipitationIn,Events,Conditions,WindDirDegrees,DateUTC
12:15 AM,66.2,48.2,52,29.83,10.0,South,15.0,29.9,N/A,,Partly Cloudy,170,2014-02-21 05:15:00
12:35 AM,64.4,48.2,56,29.84,10.0,SW,4.6,-,N/A,,Mostly Cloudy,230,2014-02-21 05:35:00
12:55 AM,64.4,48.2,56,29.83,10.0,Variable,6.9,-,N/A,,Mostly Cloudy,0,2014-02-21 05:55:00
1:15 AM,64.4,48.2,56,29.81,10.0,Calm,Calm,-,N/A,,Partly Cloudy,0,2014-02-21 06:15:00
1:35 AM,66.2,48.2,52,29.80,10.0,Variable,5.8,-,N/A,,Clear,0,2014-02-21 06:35:00
1:55 AM,66.2,48.2,52,29.79,10.0,South,11.5,25.3,N/A,,Clear,180,2014-02-21 06:55:00
2:15 AM,66.2,48.2,52,29.78,10.0,SSW,15.0,-,N/A,,Clear,200,2014-02-21 07:15:00
2:35 AM,66.2,48.2,52,29.76,10.0,Variable,6.9,-,N/A,,Clear,0,2014-02-21 07:35:00
2:55 AM,66.2,48.2,52,29.75,10.0,ESE,8.1,21.9,N/A,,Mostly Cloudy,110,2014-02-21 07:55:00
3:15 AM,66.2,48.2,52,29.74,10.0,SSE,12.7,-,N/A,,Overcast,160,2014-02-21 08:15:00
3:35 AM,66.2,48.2,52,29.75,10.0,WSW,10.4,34.5,N/A,,Overcast,240,2014-02-21 08:35:00
3:55 AM,66.2,48.2,52,29.75,10.0,SW,6.9,-,N/A,Rain,Light Rain,230,2014-02-21 08:55:00
4:15 AM,66.2,48.2,52,29.75,10.0,West,17.3,29.9,N/A,,Overcast,260,2014-02-21 09:15:00
4:35 AM,59.0,51.8,77,29.80,10.0,West,10.4,-,N/A,,Light Drizzle,280,2014-02-21 09:35:00
4:55 AM,55.4,53.6,94,29.81,5.0,Variable,6.9,-,N/A,Rain,Light Rain,0,2014-02-21 09:55:00
5:15 AM,55.4,51.8,88,29.80,10.0,West,6.9,-,N/A,,Overcast,270,2014-02-21 10:15:00
5:35 AM,55.4,51.8,88,29.77,10.0,West,5.8,-,N/A,Rain,Light Rain,280,2014-02-21 10:35:00
5:55 AM,55.4,53.6,94,29.78,6.0,West,4.6,-,N/A,Rain,Heavy Rain,260,2014-02-21 10:55:00
6:15 AM,53.6,53.6,100,29.80,4.0,Variable,6.9,-,N/A,Rain,Heavy Rain,0,2014-02-21 11:15:00
6:35 AM,53.6,53.6,100,29.81,3.0,WSW,10.4,-,N/A,Rain,Heavy Rain,250,2014-02-21 11:35:00
6:55 AM,53.6,53.6,100,29.83,10.0,WSW,6.9,-,N/A,Rain,Heavy Rain,240,2014-02-21 11:55:00
7:15 AM,53.6,51.8,94,29.75,6.0,ENE,5.8,-,N/A,Rain,Rain,70,2014-02-21 12:15:00
7:35 AM,50.0,48.2,94,29.85,9.0,West,13.8,-,N/A,Rain,Light Rain,260,2014-02-21 12:35:00
7:55 AM,46.4,44.6,93,29.92,2.0,WSW,18.4,-,N/A,Rain,Light Rain,240,2014-02-21 12:55:00
8:15 AM,44.6,42.8,93,29.94,6.0,WSW,15.0,-,N/A,Rain,Light Rain,250,2014-02-21 13:15:00
8:35 AM,42.8,41.0,93,29.98,5.0,West,15.0,-,N/A,Rain,Light Rain,270,2014-02-21 13:35:00
8:55 AM,41.0,37.4,87,30.00,6.0,West,12.7,-,N/A,,Light Drizzle,270,2014-02-21 13:55:00
9:15 AM,39.2,37.4,93,30.01,4.0,West,11.5,20.7,N/A,,Light Drizzle,260,2014-02-21 14:15:00
9:35 AM,39.2,37.4,93,30.03,10.0,WSW,10.4,-,N/A,,Overcast,240,2014-02-21 14:35:00
9:55 AM,39.2,35.6,87,30.03,10.0,WSW,5.8,-,N/A,,Overcast,240,2014-02-21 14:55:00
10:15 AM,39.2,35.6,87,30.02,10.0,SSW,4.6,-,N/A,,Overcast,210,2014-02-21 15:15:00
10:35 AM,41.0,33.8,76,30.02,10.0,WSW,3.5,-,N/A,,Mostly Cloudy,240,2014-02-21 15:35:00
10:55 AM,42.8,33.8,70,30.00,10.0,Calm,Calm,-,N/A,,Partly Cloudy,0,2014-02-21 15:55:00
11:15 AM,44.6,30.2,57,29.99,10.0,West,4.6,-,N/A,,Clear,260,2014-02-21 16:15:00
11:35 AM,46.4,32.0,57,29.99,10.0,Variable,3.5,-,N/A,,Clear,0,2014-02-21 16:35:00
11:55 AM,46.4,30.2,53,29.98,10.0,West,8.1,-,N/A,,Clear,260,2014-02-21 16:55:00
12:15 PM,46.4,33.8,62,29.98,10.0,West,8.1,-,N/A,,Partly Cloudy,270,2014-02-21 17:15:00
12:35 PM,48.2,30.2,50,29.97,10.0,Variable,6.9,-,N/A,,Clear,0,2014-02-21 17:35:00
12:55 PM,48.2,26.6,43,29.96,10.0,West,15.0,-,N/A,,Clear,270,2014-02-21 17:55:00
1:15 PM,48.2,26.6,43,29.96,10.0,West,10.4,-,N/A,,Clear,270,2014-02-21 18:15:00
1:35 PM,48.2,26.6,43,29.95,10.0,West,9.2,-,N/A,,Clear,270,2014-02-21 18:35:00
1:55 PM,50.0,26.6,40,29.95,10.0,West,11.5,-,N/A,,Clear,260,2014-02-21 18:55:00
2:15 PM,50.0,28.4,43,29.94,10.0,SW,11.5,-,N/A,,Clear,230,2014-02-21 19:15:00
2:35 PM,51.8,26.6,38,29.95,10.0,West,12.7,-,N/A,,Clear,260,2014-02-21 19:35:00
2:55 PM,51.8,26.6,38,29.95,10.0,WSW,15.0,-,N/A,,Clear,250,2014-02-21 19:55:00
3:15 PM,51.8,26.6,38,29.95,10.0,WNW,15.0,-,N/A,,Clear,300,2014-02-21 20:15:00
3:35 PM,51.8,26.6,38,29.96,10.0,WSW,9.2,18.4,N/A,,Clear,250,2014-02-21 20:35:00
3:55 PM,51.8,21.2,30,29.96,10.0,West,11.5,-,N/A,,Clear,260,2014-02-21 20:55:00
4:15 PM,51.8,24.8,35,29.96,10.0,WSW,10.4,-,N/A,,Clear,250,2014-02-21 21:15:00
4:35 PM,51.8,21.2,30,29.97,10.0,WSW,15.0,-,N/A,,Clear,250,2014-02-21 21:35:00
4:55 PM,51.8,21.2,30,29.97,10.0,SW,11.5,-,N/A,,Clear,230,2014-02-21 21:55:00
5:15 PM,51.8,23.0,33,29.99,10.0,West,10.4,-,N/A,,Clear,270,2014-02-21 22:15:00
5:35 PM,50.0,21.2,32,30.00,10.0,West,9.2,-,N/A,,Clear,270,2014-02-21 22:35:00
5:55 PM,48.2,21.2,34,30.00,10.0,West,5.8,-,N/A,,Clear,270,2014-02-21 22:55:00
6:15 PM,46.4,23.0,40,30.01,10.0,West,4.6,-,N/A,,Clear,260,2014-02-21 23:15:00
6:35 PM,46.4,21.2,37,30.02,10.0,WSW,5.8,-,N/A,,Clear,250,2014-02-21 23:35:00
6:55 PM,44.6,21.2,39,30.03,10.0,West,8.1,-,N/A,,Clear,260,2014-02-21 23:55:00
7:15 PM,42.8,26.6,53,30.03,10.0,West,4.6,-,N/A,,Clear,280,2014-02-22 00:15:00
7:35 PM,37.4,30.2,75,30.04,10.0,NW,4.6,-,N/A,,Clear,310,2014-02-22 00:35:00
7:55 PM,37.4,30.2,75,30.04,10.0,NW,4.6,-,N/A,,Clear,310,2014-02-22 00:55:00
8:15 PM,35.6,28.4,75,30.04,10.0,Calm,Calm,-,N/A,,Clear,0,2014-02-22 01:15:00
8:35 PM,35.6,30.2,81,30.04,10.0,Calm,Calm,-,N/A,,Clear,0,2014-02-22 01:35:00
8:55 PM,33.8,28.4,81,30.05,10.0,Calm,Calm,-,N/A,,Clear,0,2014-02-22 01:55:00
9:15 PM,33.8,28.4,81,30.06,10.0,Calm,Calm,-,N/A,,Clear,0,2014-02-22 02:15:00
9:35 PM,32.0,26.6,80,30.06,10.0,Calm,Calm,-,N/A,,Clear,0,2014-02-22 02:35:00
9:55 PM,30.2,26.6,86,30.06,10.0,Calm,Calm,-,N/A,,Clear,0,2014-02-22 02:55:00
10:15 PM,30.2,26.6,86,30.07,10.0,Calm,Calm,-,N/A,,Clear,0,2014-02-22 03:15:00
10:35 PM,30.2,26.6,86,30.07,10.0,Calm,Calm,-,N/A,,Clear,0,2014-02-22 03:35:00
10:55 PM,30.2,26.6,86,30.07,10.0,Calm,Calm,-,N/A,,Clear,0,2014-02-22 03:55:00
11:15 PM,30.2,26.6,86,30.07,10.0,Calm,Calm,-,N/A,,Clear,0,2014-02-22 04:15:00
11:35 PM,28.4,26.6,93,30.08,10.0,Calm,Calm,-,N/A,,Clear,0,2014-02-22 04:35:00
11:55 PM,28.4,26.6,93,30.08,10.0,Calm,Calm,-,N/A,,Clear,0,2014-02-22 04:55:00